SCP
0 0 0 0 0 0 0 0 0 0 0 0 0 0 0 0 1 1 1 1 1 1 0 0 0 0 0 0 0 0 0 0 0 0 0 0 0 0 0 0 0 0 1
0 0 0 0 0 0 0 0 0 0 0 0 0 0 0 0 0 1 1 1 1 1 0 0 0 0 0 0 0 0 0 0 0 0 0 0 0 0 0 0 0 0 0
0 0 0 0 0 0 0 0 0 0 0 0 0 0 0 0 0 0 1 1 1 0 0 0 0 0 0 0 0 0 0 0 0 0 0 0 0 0 0 0 0 0 0
0 0 0 0 0 0 0 0 0 0 0 0 0 0 0 0 0 0 0 0 0 0 0 0 0 0 0 0 0 0 0 0 0 0 0 0 0 0 0 0 0 0 0
0 0 0 0 0 0 0 0 0 0 0 0 0 0 0 0 0 0 0 0 0 0 0 0 0 0 0 0 0 0 0 0 0 0 0 0 0 0 0 0 0 0 0
0 0 0 0 0 0 0 0 0 0 0 0 0 0 0 0 0 0 0 0 0 0 0 0 0 0 0 0 0 0 0 0 0 0 0 0 0 0 0 0 0 0 0
0 0 0 0 0 0 0 0 0 0 0 0 0 0 0 0 0 0 0 0 0 0 0 0 0 0 0 0 0 0 0 0 0 0 0 0 0 0 0 0 0 0 0
0 0 0 0 0 0 0 0 0 0 0 0 0 0 0 0 0 0 0 0 0 0 0 0 0 0 0 0 0 0 0 0 0 0 0 0 0 0 0 0 0 0 0
0 0 0 0 0 0 0 0 0 0 0 0 0 0 0 0 0 0 0 0 0 0 0 0 0 0 0 0 0 0 0 0 0 0 0 0 0 0 0 0 0 0 0
0 0 0 0 0 0 0 0 0 0 0 0 0 0 0 0 0 0 0 0 0 0 0 0 0 0 0 0 0 0 0 0 0 0 0 0 0 0 0 0 0 0 0
0 0 0 0 0 0 0 0 0 0 0 0 0 0 0 0 0 0 0 0 0 0 0 0 0 0 0 0 0 0 0 0 0 0 0 0 0 0 0 0 0 0 0
0 0 0 0 0 0 0 0 0 0 0 0 0 0 0 0 0 0 0 0 0 0 0 0 0 0 0 0 0 0 0 0 0 0 0 0 0 0 0 0 0 0 0
0 0 0 0 0 0 0 0 0 0 0 0 0 0 0 0 0 0 0 0 0 0 0 0 0 0 0 0 0 0 0 0 0 0 0 0 0 0 0 0 0 0 0
0 0 0 0 0 0 0 0 0 0 0 0 0 0 0 0 0 0 0 0 0 0 0 0 0 0 0 0 0 0 0 0 0 0 0 0 0 0 0 0 0 0 0
0 0 0 0 0 0 0 0 0 0 0 0 0 0 0 0 0 0 0 0 0 0 0 0 0 0 0 0 0 0 0 0 0 0 0 0 0 0 0 0 0 0 0
0 0 0 0 0 0 0 0 0 0 0 0 0 0 0 0 0 0 0 0 0 0 0 0 0 0 0 0 0 0 0 0 0 0 0 0 0 0 0 0 0 0 0
0 0 0 0 0 0 0 0 0 0 0 0 0 0 0 0 0 0 0 0 0 0 0 0 0 0 0 0 0 0 0 0 0 0 0 0 0 0 0 0 0 0 0
0 0 0 0 0 0 0 0 0 0 0 0 0 0 0 0 0 0 0 0 0 0 0 0 0 0 0 0 0 0 0 0 0 0 0 0 0 0 0 0 0 0 0
0 0 0 0 0 0 0 0 0 0 0 0 0 0 0 0 0 0 0 0 0 0 0 0 0 0 0 0 0 0 0 0 0 0 0 0 0 0 0 0 0 0 0
0 0 0 0 0 0 0 0 0 0 0 0 0 0 0 0 0 0 0 0 0 0 0 0 0 0 0 0 0 0 0 0 0 0 0 0 0 0 0 0 0 0 0
0 0 0 0 0 0 0 0 0 0 0 0 0 0 0 0 0 0 0 0 0 0 0 0 0 0 0 0 0 0 0 0 0 0 0 0 0 0 0 0 0 0 0
0 0 0 0 0 0 0 0 0 0 0 0 0 0 0 0 0 0 0 0 0 0 0 0 0 0 0 0 0 0 0 0 0 0 0 0 0 0 0 0 0 0 0
0 0 0 0 0 0 0 0 0 0 0 0 0 0 0 0 0 0 0 0 0 0 0 0 0 0 0 0 0 0 0 0 0 0 0 0 0 0 0 0 0 0 0
0 0 0 0 0 0 0 0 0 0 0 0 0 0 0 0 0 0 0 0 0 0 0 0 0 0 0 0 0 0 0 0 0 0 0 0 0 0 0 0 0 0 0
0 0 0 0 0 0 0 0 0 0 0 0 0 0 0 0 0 0 0 0 0 0 0 0 0 0 0 0 0 0 0 0 0 0 0 0 0 0 0 0 0 0 0
0 0 0 0 0 0 0 0 0 0 0 0 0 0 0 0 0 0 0 0 0 0 0 0 0 0 0 0 0 0 0 0 0 0 0 0 0 0 0 0 0 0 0
Wind_Speed
4 4 4 5 5 5 5 6 5 5 5 5 5 5 5 5 5 4 5 6 7 7 6 6 7 5 4 4 4 4 4 4 6 4 2 2 1 1 1 2 2 2 3
5 5 6 6 5 6 6 7 6 6 6 6 6 5 5 5 5 5 6 6 7 7 7 7 7 5 6 4 4 5 5 5 5 5 3 2 2 2 3 3 3 4 4
6 6 7 7 7 7 8 7 7 7 7 6 6 6 6 5 5 6 6 7 7 7 7 8 7 6 6 4 4 5 4 5 4 4 4 2 1 2 3 4 5 4 5
7 7 8 8 8 8 8 8 7 7 7 7 6 6 6 6 6 6 6 6 6 6 7 8 8 8 7 6 5 5 4 4 4 4 3 2 2 3 4 5 4 4 5
8 8 9 9 9 8 8 8 7 7 7 7 6 6 6 5 6 5 5 7 6 6 6 7 7 9 10 7 5 5 4 4 4 4 4 3 3 5 5 4 6 6 4
8 9 9 8 8 8 8 7 7 7 7 6 6 6 6 6 8 10 8 6 6 6 7 7 7 8 10 10 10 8 7 6 6 5 4 5 5 5 5 7 8 7 4
8 9 9 9 8 9 9 7 8 8 7 7 7 7 7 8 12 12 12 7 7 6 7 6 6 6 8 6 6 6 6 7 8 6 7 6 6 7 8 8 8 6 5
9 9 9 8 9 8 8 8 8 7 7 7 7 8 7 9 12 12 12 8 6 7 7 7 7 6 7 7 5 4 3 3 5 5 5 5 6 6 7 8 9 7 7
9 9 9 9 9 8 8 9 8 7 7 7 6 7 8 9 12 13 11 5 5 6 6 7 7 7 10 10 7 6 4 2 3 6 6 7 9 10 9 8 8 9 8
10 10 9 9 8 9 9 9 7 7 8 7 7 7 8 8 11 13 10 4 5 5 5 5 8 8 10 12 8 8 6 4 4 5 6 6 7 9 10 8 9 9 8
10 10 9 9 9 9 8 7 7 7 6 6 7 7 7 9 10 12 11 5 5 5 4 4 4 7 9 11 9 7 8 7 5 6 5 5 5 6 6 6 6 8 8
10 10 10 9 9 9 7 7 7 6 6 6 6 6 5 6 8 9 10 9 7 5 4 3 4 8 8 9 8 8 10 8 5 5 5 5 5 5 5 5 6 5 5
10 11 10 10 8 8 7 7 6 5 5 6 5 5 5 4 5 8 8 8 8 4 3 4 4 8 8 6 8 11 10 6 5 6 6 4 4 5 6 5 7 7 7
11 10 9 8 8 7 6 5 5 5 5 5 5 5 4 3 3 3 3 3 5 4 3 3 5 6 5 6 7 7 5 5 6 6 5 4 4 5 6 6 7 7 6
11 10 9 7 7 6 6 5 6 6 6 6 5 5 4 4 6 7 5 4 4 4 4 3 3 3 4 4 4 4 4 5 5 5 6 6 6 6 5 5 6 6 6
9 8 6 5 5 5 5 5 7 8 9 11 10 7 5 7 7 7 8 7 7 8 5 4 4 5 5 6 6 5 4 5 6 6 6 6 7 7 6 5 5 6 7
9 8 6 5 4 4 4 4 4 4 6 7 8 8 7 6 7 8 7 7 8 8 4 4 4 5 5 5 6 5 5 5 6 7 7 7 7 6 6 6 5 5 5
8 9 7 4 4 4 4 4 3 3 3 2 3 5 6 7 8 8 8 7 4 4 3 4 4 5 5 5 5 5 6 6 6 7 7 6 6 6 6 6 6 6 6
7 5 5 4 4 4 3 3 3 3 3 2 1 1 2 5 6 7 8 4 4 4 3 3 3 4 4 4 5 6 6 6 7 7 6 7 6 6 6 6 6 8 6
6 9 7 4 3 3 3 3 3 3 3 2 2 2 3 4 3 4 4 3 3 3 3 3 4 4 4 4 5 6 6 6 7 6 6 6 6 6 7 7 6 6 5
5 6 9 5 3 3 3 3 2 2 2 2 2 3 7 4 5 5 5 4 4 4 3 3 4 4 3 4 5 6 7 6 6 6 6 6 6 6 5 6 6 6 6
5 4 4 3 3 3 2 2 2 2 2 2 1 3 7 4 4 4 4 4 4 3 3 3 3 3 3 5 5 6 6 6 6 6 6 6 6 6 6 6 6 6 6
5 5 4 3 2 2 2 1 1 1 2 2 2 3 3 3 4 4 4 4 3 3 3 3 3 3 3 4 5 6 6 7 7 8 7 7 6 6 6 6 7 7 6
5 5 4 3 2 2 1 1 0 1 2 2 3 3 3 4 4 5 4 3 3 3 3 3 4 5 6 5 4 5 5 6 7 7 10 8 7 6 6 6 6 8 7
6 5 3 2 2 1 1 1 0 1 2 2 2 3 4 4 4 4 3 3 4 3 4 4 4 5 8 8 7 6 7 9 8 7 7 7 8 7 7 7 6 6 6
6 5 4 2 2 1 1 1 1 1 2 2 3 3 4 4 4 3 3 3 3 3 3 3 4 6 8 7 8 10 9 9 9 9 7 6 7 6 7 5 7 6 6
Wind_Direction
267 267 277 278 280 284 284 283 283 283 290 290 286 284 283 279 271 255 248 243 237 240 238 232 235 229 231 231 227 225 222 217 247 264 254 262 262 220 183 129 126 123 128
257 257 260 263 267 271 270 271 272 275 276 274 274 274 274 277 272 261 259 258 247 242 237 231 235 231 231 230 227 230 228 220 227 253 258 241 239 194 167 142 129 117 113
256 255 258 260 259 259 259 262 264 265 268 271 269 267 266 268 268 260 253 255 250 246 237 228 228 222 229 230 231 234 232 229 218 223 240 229 212 170 150 129 114 105 106
254 252 254 255 253 254 256 257 258 258 259 261 260 258 256 258 261 262 264 261 256 252 243 232 223 215 218 222 230 233 228 224 216 212 215 203 184 164 149 136 124 110 109
256 253 252 252 252 252 253 255 257 255 257 251 251 256 257 259 260 265 264 268 258 256 252 241 229 221 216 214 221 222 214 211 208 203 195 185 179 169 160 144 135 119 93
251 251 251 250 250 248 248 249 253 253 254 252 250 251 255 266 274 274 268 264 256 251 253 245 236 227 219 216 218 216 207 204 202 194 194 189 184 169 152 148 143 139 125
255 254 251 249 248 246 247 246 243 246 245 246 249 248 250 256 263 268 267 259 251 247 246 237 238 228 208 208 213 213 214 214 204 195 189 190 180 171 157 153 155 145 132
265 264 263 260 257 252 250 249 247 243 238 238 242 244 248 258 261 264 265 258 248 246 241 232 231 222 209 195 190 188 199 205 204 199 190 186 169 160 158 153 145 117 103
274 271 268 264 261 258 253 251 248 243 242 241 240 241 245 256 259 260 257 242 244 247 242 237 230 219 209 189 178 178 184 201 181 168 165 157 149 148 145 137 139 138 135
277 271 269 265 261 259 254 251 249 244 241 240 243 241 242 250 255 254 247 229 237 244 241 239 230 220 202 186 179 175 179 186 159 144 143 141 143 145 148 150 149 145 138
284 280 276 270 265 260 255 251 249 248 244 240 243 248 246 248 255 253 244 218 218 230 234 227 223 215 199 190 182 179 177 164 154 148 141 137 134 138 143 142 144 146 144
284 282 278 273 271 276 258 254 249 243 245 245 244 254 255 253 249 249 240 226 213 216 228 222 206 193 193 185 180 165 154 146 141 139 139 142 141 141 141 137 134 134 133
283 278 275 273 267 263 258 255 254 243 238 241 236 242 254 255 250 242 231 221 210 205 212 209 195 185 179 177 176 162 153 146 141 139 142 143 137 136 128 117 108 103 92
289 284 278 272 268 262 256 249 246 243 239 238 233 235 243 246 240 225 205 197 194 194 191 178 174 171 173 164 162 160 151 147 144 141 138 128 119 122 128 128 124 118 103
292 287 281 272 265 260 253 248 244 238 232 227 227 221 221 238 235 212 192 188 189 189 167 153 157 155 166 160 153 151 141 138 136 134 131 127 126 122 120 120 123 118 115
295 289 281 275 269 259 258 266 254 249 254 244 233 224 228 231 225 209 195 186 182 170 166 167 166 170 174 170 159 152 148 148 146 139 135 134 132 129 122 113 115 119 122
295 293 287 280 274 267 260 257 270 274 266 257 244 236 230 221 203 189 177 166 167 165 169 168 169 172 172 166 158 151 148 148 143 139 137 137 133 129 128 125 121 118 120
296 295 294 277 269 265 260 254 250 250 264 277 260 234 221 206 189 176 156 138 155 178 176 169 171 169 161 158 155 148 142 141 140 140 140 139 137 135 135 135 135 134 133
297 291 286 278 268 260 256 254 249 244 239 243 254 252 177 153 149 154 153 155 164 174 173 165 161 155 152 153 147 145 143 145 146 143 145 146 144 140 141 144 143 143 135
296 297 299 283 269 264 256 251 248 238 229 222 209 176 145 131 140 158 178 177 166 165 165 167 161 150 148 148 142 139 141 145 146 144 148 150 148 146 148 149 149 150 151
301 299 301 295 273 262 256 252 246 232 222 213 206 183 166 159 164 172 181 185 178 171 172 168 159 157 155 148 144 143 144 147 149 150 150 151 149 147 149 151 154 153 149
304 300 293 284 275 266 256 249 233 219 211 203 183 160 168 157 162 171 179 184 179 173 172 163 159 165 164 157 153 149 148 150 153 152 150 149 148 148 147 148 149 151 150
312 309 307 300 289 283 275 252 224 208 188 175 161 151 161 160 165 170 177 176 163 163 162 158 164 169 160 155 155 156 158 163 161 155 151 151 149 150 150 151 154 152 157
322 316 318 327 324 317 305 290 242 168 161 161 163 161 160 160 159 161 163 157 154 158 163 167 175 177 167 159 160 162 162 160 156 156 154 153 152 152 151 152 156 162 165
335 333 330 337 338 335 348 359 62 132 146 152 152 148 146 148 148 149 150 151 158 165 175 176 172 172 168 164 165 162 159 158 157 153 150 150 155 157 158 158 158 159 163
343 342 341 345 345 344 354 18 52 84 110 123 127 133 137 138 138 141 146 149 155 165 166 164 162 158 156 157 158 155 154 156 157 157 151 149 154 159 160 162 167 167 169